Location: Asheville, NC
(35.6000°N, 82.5500°W)
Time: 07:49:40
(UTC-05:00)

Envisat - Pass Details

Date: 14 October 2017
Orbit: 764 x 766 km, 98.2° (Epoch: 18 December)

Event Time Altitude Azimuth Distance (km) Brightness Sun altitude
Exits shadow 22:00:15 20° 322° (NW) 1,725 5.2 -37.9°
Drops below altitude 10° 22:01:54 10° 332° (NNW) 2,306 5.9 -38.2°
Sets 22:04:20 0° 340° (NNW) 3,237 6.7 -38.7°
